Sturgis, MI

8:26 PM EST on February 11, 2016 (GMT -0500)
Kirsch Municipal

Weather History for KIRS - November, 2013

Change the Weather History Date:

Wednesday, November 6, 2013

  Actual Average (KHAI) Record (KHAI)
Temperature  
Mean Temperature 48 °F -  
Max Temperature 55 °F 51 °F 76 °F (1975)
Min Temperature 41 °F 32 °F 8 °F (1951)
Degree Days  
Heating Degree Days 17    
Moisture  
Dew Point 46 °F    
Average Humidity 86    
Maximum Humidity 100    
Minimum Humidity 58    
Precipitation  
Precipitation 0.00 in - - ()
Sea Level Pressure  
Sea Level Pressure 29.95 in    
Wind  
Wind Speed 14 mph (SW)    
Max Wind Speed 23 mph    
Max Gust Speed 31 mph    
Visibility 9 miles    
Events Rain    
Averages and records for this station are not official NWS values.
T = Trace of Precipitation, MM = Missing Value Source: NWS Daily Summary

Daily Weather History Graph

Daily Weather History Graph

Search for Another Location

Airport or City:

Trip Planner

Search our weather history database for the weather conditions in past years. The results will help you decide how hot, cold, wet, or windy it might be!

Date:

Astronomy

Nov. 06, 2013 Rise Set
Actual Time 7:20 AM EST 5:29 PM EST
Civil Twilight 6:51 AM EST 5:59 PM EST
Nautical Twilight 6:17 AM EST 6:32 PM EST
Astronomical Twilight 5:45 AM EST 7:04 PM EST
Moon 10:35 AM EST (11/6) 8:32 PM EST (11/6)
Length of Visible Light 11h 07m
Length of Day
10h 09m
Waxing Crescent, 13% of the Moon is Illuminated
Nov 6
Waxing Crescent
Nov 10
First Quarter
Nov 17
Full
Nov 25
Last Quarter
Dec 2
New

Hourly Weather History & Observations

Time (EST) Temp. Windchill Dew Point Humidity Pressure Visibility Wind Dir Wind Speed Gust Speed Precip Events Conditions
12:14 AM 53.6 °F - 42.8 °F 67% 30.09 in 10.0 mi South 11.5 mph - N/A   Scattered Clouds
12:35 AM 53.6 °F - 42.8 °F 67% 30.09 in 10.0 mi South 13.8 mph 17.3 mph N/A   Overcast
12:55 AM 55.4 °F - 41.0 °F 58% 30.09 in 10.0 mi South 10.4 mph - N/A   Overcast
1:14 AM 53.6 °F - 42.8 °F 67% 30.07 in 10.0 mi South 11.5 mph - N/A   Overcast
1:35 AM 55.4 °F - 42.8 °F 63% 30.06 in 10.0 mi SSE 11.5 mph 21.9 mph N/A   Overcast
1:55 AM 55.4 °F - 42.8 °F 63% 30.05 in 10.0 mi South 13.8 mph 20.7 mph N/A   Overcast
2:14 AM 55.4 °F - 42.8 °F 63% 30.04 in 10.0 mi South 16.1 mph 23.0 mph N/A   Overcast
2:35 AM 55.4 °F - 41.0 °F 58% 30.03 in 10.0 mi South 17.3 mph 24.2 mph N/A   Overcast
2:55 AM 55.4 °F - 42.8 °F 63% 30.02 in 10.0 mi South 16.1 mph 21.9 mph N/A   Overcast
3:14 AM 55.4 °F - 42.8 °F 63% 30.01 in 10.0 mi South 15.0 mph - N/A   Overcast
3:35 AM 55.4 °F - 42.8 °F 63% 30.00 in 10.0 mi South 15.0 mph 18.4 mph N/A   Overcast
3:55 AM 55.4 °F - 42.8 °F 63% 29.99 in 10.0 mi South 12.7 mph 18.4 mph N/A   Overcast
4:14 AM 55.4 °F - 44.6 °F 67% 29.98 in 10.0 mi South 13.8 mph - N/A   Overcast
4:35 AM 55.4 °F - 44.6 °F 67% 29.98 in 10.0 mi South 12.7 mph - N/A   Overcast
4:55 AM 53.6 °F - 46.4 °F 77% 29.97 in 10.0 mi South 12.7 mph 18.4 mph N/A Rain Rain
5:14 AM 55.4 °F - 48.2 °F 77% 29.96 in 10.0 mi SSW 17.3 mph 24.2 mph N/A Rain Light Rain
5:35 AM 55.4 °F - 48.2 °F 77% 29.96 in 10.0 mi SSW 13.8 mph 23.0 mph N/A   Drizzle
5:54 AM 55.4 °F - 48.2 °F 77% 29.95 in 10.0 mi South 17.3 mph 25.3 mph N/A Rain Light Rain
6:15 AM 53.6 °F - 50.0 °F 88% 29.94 in 10.0 mi SSW 18.4 mph 23.0 mph N/A Rain Light Rain
6:35 AM 53.6 °F - 50.0 °F 88% 29.94 in 10.0 mi SSW 15.0 mph 19.6 mph N/A Rain Light Rain
6:54 AM 53.6 °F - 50.0 °F 88% 29.93 in 10.0 mi SSW 15.0 mph - N/A Rain Light Rain
7:15 AM 53.6 °F - 51.8 °F 94% 29.92 in 10.0 mi South 15.0 mph - N/A   Light Drizzle
7:35 AM 53.6 °F - 51.8 °F 94% 29.92 in 10.0 mi South 18.4 mph 23.0 mph N/A Rain Rain
7:54 AM 55.4 °F - 50.0 °F 82% 29.92 in 10.0 mi SSW 17.3 mph 29.9 mph N/A   Overcast
8:14 AM 53.6 °F - 50.0 °F 88% 29.92 in 10.0 mi SSW 19.6 mph 23.0 mph N/A   Drizzle
8:35 AM 53.6 °F - 51.8 °F 94% 29.92 in 10.0 mi SSW 18.4 mph 26.5 mph N/A Rain Light Rain
8:54 AM 53.6 °F - 51.8 °F 94% 29.92 in 10.0 mi SSW 18.4 mph 25.3 mph N/A Rain Light Rain
9:14 AM 53.6 °F - 51.8 °F 94% 29.92 in 10.0 mi SSW 19.6 mph 25.3 mph N/A Rain Rain
9:35 AM 53.6 °F - 51.8 °F 94% 29.92 in 10.0 mi SSW 19.6 mph 25.3 mph N/A Rain Rain
9:54 AM 53.6 °F - 51.8 °F 94% 29.91 in 10.0 mi SSW 18.4 mph 25.3 mph N/A   Overcast
10:14 AM 53.6 °F - 51.8 °F 94% 29.90 in 10.0 mi SSW 23.0 mph 27.6 mph N/A Rain Light Rain
10:35 AM 53.6 °F - 51.8 °F 94% 29.90 in 4.0 mi SSW 18.4 mph 25.3 mph N/A Rain Light Rain
10:54 AM 53.6 °F - 51.8 °F 94% 29.89 in 4.0 mi SSW 20.7 mph 29.9 mph N/A Rain Heavy Rain
11:15 AM 53.6 °F - 51.8 °F 94% 29.88 in 4.0 mi SSW 16.1 mph 24.2 mph N/A Rain Light Rain
11:35 AM 53.6 °F - 51.8 °F 94% 29.88 in 5.0 mi SSW 18.4 mph 25.3 mph N/A Rain Light Rain
11:54 AM 53.6 °F - 51.8 °F 94% 29.87 in 3.0 mi SSW 16.1 mph 20.7 mph N/A Rain Rain
12:14 PM 53.6 °F - 51.8 °F 94% 29.86 in 4.0 mi SSW 17.3 mph 23.0 mph N/A Rain Light Rain
12:35 PM 53.6 °F - 51.8 °F 94% 29.85 in 7.0 mi SSW 19.6 mph 24.2 mph N/A Rain Light Rain
12:54 PM 53.6 °F - 51.8 °F 94% 29.84 in 7.0 mi SSW 17.3 mph 25.3 mph N/A Rain Rain
1:14 PM 53.6 °F - 51.8 °F 94% 29.83 in 10.0 mi SSW 19.6 mph 26.5 mph N/A Rain Light Rain
1:35 PM 53.6 °F - 51.8 °F 94% 29.82 in 10.0 mi SSW 18.4 mph 29.9 mph N/A   Overcast
1:54 PM 53.6 °F - 51.8 °F 94% 29.80 in 10.0 mi SSW 15.0 mph 20.7 mph N/A   Light Drizzle
2:15 PM 53.6 °F - 51.8 °F 94% 29.84 in 10.0 mi SW 17.3 mph 24.2 mph N/A   Overcast
2:35 PM 53.6 °F - 51.8 °F 94% 29.85 in 10.0 mi SW 21.9 mph 31.1 mph N/A   Overcast
2:54 PM 53.6 °F - 51.8 °F 94% 29.84 in 10.0 mi SW 19.6 mph 29.9 mph N/A   Overcast
3:15 PM 53.6 °F - 51.8 °F 94% 29.85 in 7.0 mi SW 20.7 mph 28.8 mph N/A Rain Rain
3:35 PM 53.6 °F - 51.8 °F 94% 29.85 in 7.0 mi SW 17.3 mph 24.2 mph N/A   Light Drizzle
3:54 PM 53.6 °F - 51.8 °F 94% 29.85 in 10.0 mi SW 15.0 mph - N/A   Overcast
4:15 PM 53.6 °F - 51.8 °F 94% 29.85 in 7.0 mi SW 17.3 mph 26.5 mph N/A   Overcast
4:34 PM 53.6 °F - 51.8 °F 94% 29.85 in 3.0 mi WSW 15.0 mph 20.7 mph N/A   Drizzle
4:55 PM 51.8 °F - 51.8 °F 100% 29.87 in 3.0 mi West 16.1 mph 21.9 mph N/A Rain Rain
5:15 PM 48.2 °F - 46.4 °F 93% 29.90 in 4.0 mi WNW 17.3 mph 23.0 mph N/A   Drizzle
5:34 PM 46.4 °F 40.4 °F 44.6 °F 93% 29.92 in 4.0 mi WNW 13.8 mph 20.7 mph N/A Rain Rain
5:55 PM 44.6 °F 38.1 °F 42.8 °F 93% 29.94 in 10.0 mi WNW 13.8 mph 24.2 mph N/A   Overcast
6:15 PM 42.8 °F 36.2 °F 41.0 °F 93% 29.94 in 10.0 mi WNW 12.7 mph 24.2 mph N/A   Overcast
6:34 PM 42.8 °F 36.2 °F 41.0 °F 93% 29.97 in 10.0 mi WNW 12.7 mph 18.4 mph N/A   Overcast
6:55 PM 42.8 °F 36.6 °F 41.0 °F 93% 29.97 in 10.0 mi WNW 11.5 mph 19.6 mph N/A   Overcast
7:14 PM 42.8 °F 36.6 °F 41.0 °F 93% 29.98 in 10.0 mi WNW 11.5 mph 24.2 mph N/A   Overcast
7:34 PM 42.8 °F 37.0 °F 39.2 °F 87% 29.99 in 7.0 mi WNW 10.4 mph 17.3 mph N/A   Overcast
7:55 PM 42.8 °F 37.5 °F 39.2 °F 87% 30.00 in 7.0 mi WNW 9.2 mph 16.1 mph N/A   Overcast
8:14 PM 42.8 °F 38.0 °F 39.2 °F 87% 30.00 in 5.0 mi WNW 8.1 mph - N/A   Overcast
8:34 PM 42.8 °F 37.0 °F 39.2 °F 87% 30.01 in 7.0 mi WNW 10.4 mph - N/A   Overcast
8:55 PM 42.8 °F 37.0 °F 39.2 °F 87% 30.01 in 3.0 mi NW 10.4 mph 18.4 mph N/A   Overcast
9:14 PM 41.0 °F 35.8 °F 39.2 °F 93% 30.01 in 10.0 mi NW 8.1 mph - N/A   Light Drizzle
9:34 PM 42.8 °F 39.3 °F 39.2 °F 87% 30.01 in 10.0 mi NW 5.8 mph - N/A   Overcast
9:55 PM 42.8 °F 38.0 °F 39.2 °F 87% 30.02 in 10.0 mi NW 8.1 mph - N/A   Overcast
10:14 PM 42.8 °F 39.3 °F 39.2 °F 87% 30.04 in 10.0 mi WNW 5.8 mph - N/A   Overcast
10:34 PM 42.8 °F 39.3 °F 39.2 °F 87% 30.04 in 7.0 mi WNW 5.8 mph - N/A   Overcast
10:55 PM 41.0 °F 36.4 °F 39.2 °F 93% 30.03 in 10.0 mi WNW 6.9 mph - N/A   Overcast
11:14 PM 41.0 °F 33.9 °F 39.2 °F 93% 30.04 in 10.0 mi NW 12.7 mph 18.4 mph N/A   Overcast
11:34 PM 41.0 °F 38.0 °F 37.4 °F 87% 30.04 in 10.0 mi WNW 4.6 mph - N/A   Mostly Cloudy
11:55 PM 41.0 °F 36.4 °F 37.4 °F 87% 30.04 in 10.0 mi NW 6.9 mph - N/A   Scattered Clouds